KJ4RDP-13 Weather Reports


time (UTC)temp
C
wind
direction
speed
KPH
gust
KPH
rain 1hr
cm
rain 24hr
cm
rain mn
cm
humidity
%
barometer
mb
20260906052306 19 161 0.0 0.0 0.00 0.00 0.00 99 1015.2
20260906051802 19 161 0.0 0.0 0.00 0.00 0.00 99 1015.7
20260906051301 19 161 0.0 0.0 0.00 0.00 0.00 99 1015.2
20260906050756 19 161 0.0 0.0 0.00 0.00 0.00 99 1015.7
20260906050252 19 161 0.0 0.0 0.00 0.00 0.00 99 1015.7
20260906045750 19 161 0.0 0.0 0.00 0.00 0.00 99 1015.7
20260906045245 19 161 0.0 0.0 0.00 0.00 0.00 99 1015.7
20260906044741 19 161 0.0 0.0 0.00 0.00 0.00 99 1015.2
20260906044236 19 161 0.0 0.0 0.00 0.00 0.00 99 1015.2
20260906043732 19 161 0.0 0.0 0.00 0.00 0.00 99 1015.2
20260906043228 19 161 0.0 0.0 0.00 0.00 0.00 99 1015.2
20260906042727 19 161 0.0 0.0 0.00 0.00 0.00 99 1015.7
20260906042226 19 161 0.0 0.0 0.00 0.00 0.00 99 1015.7
20260906041722 19 161 0.0 0.0 0.00 0.00 0.00 99 1015.7
20260906041217 20 161 0.0 0.0 0.00 0.00 0.00 99 1015.2
20260906040713 19 161 0.0 0.0 0.00 0.00 0.00 99 1015.2
20260906040208 20 161 0.0 0.0 0.00 0.00 0.00 99 1015.2
20260906035704 19 160 0.0 0.0 0.00 0.00 0.00 99 1015.2
20260906035159 19 160 0.0 0.0 0.00 0.00 0.00 99 1015.7
20260906034659 20 160 0.0 0.0 0.00 0.00 0.00 99 1015.7
20260906034153 19 160 0.0 0.0 0.00 0.00 0.00 99 1015.7
20260906033644 20 160 0.0 0.0 0.00 0.00 0.00 99 1015.7
20260906033144 20 160 0.0 0.0 0.00 0.00 0.00 99 1016.0
20260906032641 20 160 0.0 0.0 0.00 0.00 0.00 99 1015.7
20260906032140 20 161 0.0 0.0 0.00 0.00 0.00 99 1016.0
20260906031636 20 145 0.0 0.0 0.00 0.00 0.00 99 1016.0
20260906031131 20 145 0.0 0.0 0.00 0.00 0.00 99 1016.4
20260906030630 20 145 0.0 0.0 0.00 0.00 0.00 99 1016.4
20260906030126 20 145 0.0 0.0 0.00 0.00 0.00 99 1016.4
20260906025625 20 145 0.0 0.0 0.00 0.00 0.00 99 1016.0
20260906025124 20 145 0.0 0.0 0.00 0.00 0.00 99 1016.0
20260906024619 20 145 0.0 0.0 0.00 0.00 0.00 99 1016.0
20260906024113 20 145 0.0 0.0 0.00 0.00 0.00 99 1016.0
20260906023609 20 144 0.0 0.0 0.00 0.00 0.00 99 1015.7
20260906023103 20 180 0.0 0.0 0.00 0.00 0.00 99 1016.0
20260906022559 20 181 0.0 0.0 0.00 0.00 0.00 99 1015.7
20260906022054 20 181 0.0 0.0 0.00 0.00 0.00 99 1015.7
20260906021550 20 181 0.0 0.0 0.00 0.00 0.00 99 1015.2
20260906021049 20 181 0.0 0.0 0.00 0.00 0.00 99 1015.2
20260906020549 20 181 0.0 0.0 0.00 0.00 0.00 99 1015.2
20260906020048 20 181 0.0 0.0 0.00 0.00 0.00 99 1015.7
20260906015548 20 181 0.0 0.0 0.00 0.00 0.00 99 1015.2
20260906015047 21 180 0.0 0.0 0.00 0.00 0.00 99 1015.2
20260906014542 21 201 0.0 0.0 0.00 0.00 0.00 99 1015.2
20260906014038 21 202 0.0 0.0 0.00 0.00 0.00 99 1015.7
20260906013533 21 202 0.0 0.0 0.00 0.00 0.00 99 1015.7
20260906013029 21 202 0.0 0.0 0.00 0.00 0.00 99 1015.2
20260906012524 21 202 0.0 0.0 0.00 0.00 0.00 99 1015.2
20260906012023 21 202 0.0 0.0 0.00 0.00 0.00 99 1015.2
20260906011520 21 202 0.0 0.0 0.00 0.00 0.00 99 1015.2
20260906011019 21 202 0.0 0.0 0.00 0.00 0.00 99 1015.2
20260906010514 21 202 0.0 0.0 0.00 0.00 0.00 99 1014.9
20260906010011 21 202 0.0 0.0 0.00 0.00 0.00 99 1015.2
20260906005510 21 202 0.0 0.0 0.00 0.00 0.00 99 1014.9
20260906005009 21 202 0.0 0.0 0.00 0.00 0.00 99 1014.9
20260906004509 21 202 0.0 0.0 0.00 0.00 0.00 99 1014.9
20260906004004 21 203 0.0 0.0 0.00 0.00 0.00 99 1014.6
20260906003459 22 203 0.0 0.0 0.00 0.00 0.00 99 1014.9
20260906002955 22 203 0.0 0.0 0.00 0.00 0.00 99 1014.6
20260906002455 22 203 0.0 0.0 0.00 0.00 0.00 99 1014.6
20260906001950 22 203 0.0 0.0 0.00 0.00 0.00 99 1014.6
20260906001446 22 203 0.0 0.0 0.00 0.00 0.00 99 1014.6
20260906000940 22 203 0.0 0.0 0.00 0.00 0.00 99 1014.9
20260906000436 22 203 0.0 0.0 0.00 0.00 0.00 99 1014.6
20260905235930 23 203 0.0 0.0 0.00 0.00 0.00 99 1014.6
20260905235430 23 203 0.0 0.0 0.00 0.00 0.00 99 1014.6
20260905234925 23 203 0.0 0.0 0.00 0.00 0.00 99 1014.2
20260905234420 23 203 0.0 0.0 0.00 0.00 0.00 99 1014.6
20260905233915 23 203 0.0 0.0 0.00 0.00 0.00 98 1014.6
20260905233410 24 203 0.0 0.0 0.00 0.00 0.00 98 1014.2
20260905232909 25 203 0.0 0.0 0.00 0.00 0.00 95 1014.2
20260905232406 25 287 0.0 0.0 0.00 0.00 0.00 92 1014.6
20260905231901 26 130 0.0 0.0 0.00 0.00 0.00 92 1014.2
20260905231356 26 335 0.0 0.0 0.00 0.00 0.00 88 1014.2
20260905230853 26 335 0.0 0.0 0.00 0.00 0.00 88 1014.2
20260905230350 26 335 0.0 0.0 0.00 0.00 0.00 87 1014.2
20260905225850 27 335 0.0 1.6 0.00 0.00 0.00 85 1013.8
20260905225345 27 335 0.0 0.0 0.00 0.00 0.00 83 1013.8
20260905224839 28 335 0.0 0.0 0.00 0.00 0.00 83 1014.2
20260905224330 30 335 0.0 0.0 0.00 0.00 0.00 76 1013.8
20260905223830 28 335 0.0 0.0 0.00 0.00 0.00 77 1014.2
20260905223327 28 335 0.0 0.0 0.00 0.00 0.00 80 1014.2
20260905222817 28 335 0.0 0.0 0.00 0.00 0.00 77 1014.2
20260905222316 27 335 0.0 0.0 0.00 0.00 0.00 77 1014.2
20260905221812 27 335 0.0 0.0 0.00 0.00 0.00 79 1014.2
20260905221309 27 329 0.0 0.0 0.00 0.00 0.00 79 1014.2
20260905220804 28 328 0.0 0.0 0.00 0.00 0.00 75 1014.6
20260905220300 27 328 0.0 0.0 0.00 0.00 0.00 75 1014.6
20260905215759 28 328 0.0 0.0 0.00 0.00 0.00 77 1014.6
20260905215255 29 329 0.0 0.0 0.00 0.00 0.00 73 1014.6
20260905214750 28 330 0.0 0.0 0.00 0.00 0.00 75 1014.6
20260905214246 28 329 0.0 1.6 0.00 0.00 0.00 75 1014.2
20260905213741 27 335 0.0 0.0 0.00 0.00 0.00 75 1014.6
20260905213238 27 332 1.6 1.6 0.00 0.00 0.00 79 1014.6
20260905212733 28 339 0.0 0.0 0.00 0.00 0.00 73 1014.9
20260905212232 28 339 0.0 1.6 0.00 0.00 0.00 73 1014.9
20260905211731 28 340 0.0 0.0 0.00 0.00 0.00 74 1014.9
20260905211227 28 340 0.0 0.0 0.00 0.00 0.00 73 1014.9
20260905210723 28 240 0.0 1.6 0.00 0.00 0.00 74 1015.2
20260905210223 27 238 1.6 1.6 0.00 0.00 0.00 76 1015.2
20260905205722 26 238 0.0 0.0 0.00 0.00 0.00 81 1015.2
20260905205216 26 238 0.0 0.0 0.00 0.00 0.00 81 1015.2
20260905204710 25 233 0.0 0.0 0.00 0.00 0.00 84 1014.9
20260905204206 25 233 0.0 0.0 0.00 0.00 0.00 84 1014.9
20260905203700 25 225 1.6 3.2 0.00 0.00 0.00 88 1015.2
20260905203156 25 219 4.8 4.8 0.00 0.00 0.00 87 1014.9
20260905202651 23 179 0.0 0.0 0.00 0.00 0.00 95 1014.9
20260905202146 23 178 0.0 0.0 0.00 0.00 0.00 97 1015.7
20260905201642 23 178 0.0 0.0 0.00 0.00 0.00 99 1015.2
20260905201136 22 176 0.0 0.0 0.00 0.00 0.00 99 1015.7
20260905200631 23 132 0.0 0.0 0.00 0.00 0.00 99 1015.7
20260905200127 22 182 0.0 0.0 0.00 0.00 0.00 99 1015.7
20260905195625 22 182 0.0 0.0 0.00 0.00 0.00 99 1016.0
20260905195121 22 171 0.0 0.0 0.00 0.00 0.00 99 1015.7
20260905194621 22 175 0.0 1.6 0.00 0.00 0.00 99 1015.7
20260905194120 22 174 0.0 0.0 0.00 0.00 0.00 99 1015.7
20260905193615 22 64 0.0 0.0 0.00 0.00 0.00 99 1016.0
20260905193110 22 16 0.0 1.6 0.00 0.00 0.00 99 1016.0
20260905192606 22 109 0.0 0.0 0.00 0.00 0.00 99 1015.7
20260905192102 22 86 0.0 0.0 0.00 0.00 0.00 99 1015.7
20260905191600 22 21 0.0 0.0 0.00 0.00 0.00 99 1015.7
20260905191059 22 21 0.0 0.0 0.00 0.00 0.00 99 1015.7
20260905190557 22 22 1.6 1.6 0.00 0.00 0.00 99 1016.0
20260905190056 22 22 0.0 0.0 0.00 0.00 0.00 99 1016.0
20260905185556 22 22 0.0 0.0 0.00 0.00 0.00 99 1016.4
20260905185056 22 22 0.0 0.0 0.00 0.00 0.00 99 1016.4
20260905184551 21 170 0.0 0.0 0.00 0.00 0.00 99 1016.4
20260905184050 21 233 0.0 0.0 0.00 0.00 0.00 99 1016.4
20260905183549 21 186 3.2 4.8 0.00 0.00 0.00 99 1016.7
20260905183044 21 93 0.0 0.0 0.00 0.00 0.00 99 1016.4
20260905182538 21 78 0.0 1.6 0.00 0.00 0.00 99 1016.4
20260905182038 21 145 0.0 1.6 0.00 0.00 0.00 99 1016.7
20260905181533 21 88 0.0 0.0 0.00 0.00 0.00 99 1017.1
20260905181032 21 135 0.0 0.0 0.00 0.00 0.00 99 1017.5
20260905180527 21 126 11.3 17.7 0.00 0.00 0.00 98 1017.1
20260905180023 24 119 9.7 12.9 0.00 0.00 0.00 96 1017.5
20260905175522 28 40 6.4 9.7 0.00 0.00 0.00 79 1016.7
20260905175018 30 23 3.2 3.2 0.00 0.00 0.00 73 1015.7
20260905174513 31 120 1.6 3.2 0.00 0.00 0.00 69 1015.7
20260905174009 31 92 0.0 1.6 0.00 0.00 0.00 70 1015.2
20260905173504 31 324 1.6 1.6 0.00 0.00 0.00 67 1015.2
20260905173000 31 323 4.8 4.8 0.00 0.00 0.00 66 1015.2
20260905172458 31 312 3.2 3.2 0.00 0.00 0.00 67 1015.7
20260905171954 32 230 0.0 0.0 0.00 0.00 0.00 66 1016.4
20260905171450 32 186 3.2 3.2 0.00 0.00 0.00 65 1016.0
20260905170946 33 289 4.8 4.8 0.00 0.00 0.00 59 1016.0
20260905170309 32 327 4.8 9.7 0.00 0.00 0.00 64 1015.7
20260905165808 32 327 4.8 9.7 0.00 0.00 0.00 64 1015.7
20260905165306 32 292 4.8 4.8 0.00 0.00 0.00 67 1015.7
20260905164803 32 296 6.4 9.7 0.00 0.00 0.00 66 1016.0
20260905164258 32 334 1.6 1.6 0.00 0.00 0.00 65 1016.0
20260905163754 32 306 1.6 3.2 0.00 0.00 0.00 66 1016.4
20260905163250 32 326 0.0 0.0 0.00 0.00 0.00 63 1016.4
20260905161144 31 317 6.4 8.0 0.00 0.00 0.00 67 1016.4
20260905160639 31 317 6.4 8.0 0.00 0.00 0.00 67 1016.4
20260905160138 31 271 0.0 0.0 0.00 0.00 0.00 70 1016.7
20260905155633 31 352 6.4 8.0 0.00 0.00 0.00 69 1016.7
20260905155131 30 348 4.8 8.0 0.00 0.00 0.00 70 1016.7
20260905154626 31 21 3.2 4.8 0.00 0.00 0.00 72 1016.7
20260905154122 31 302 3.2 4.8 0.00 0.00 0.00 73 1016.7
20260905153617 31 177 1.6 3.2 0.00 0.00 0.00 71 1016.7
20260905153112 30 182 1.6 1.6 0.00 0.00 0.00 76 1016.4
20260905152607 30 305 3.2 3.2 0.00 0.00 0.00 75 1016.7
20260905152101 29 291 4.8 4.8 0.00 0.00 0.00 77 1016.7
20260905151557 30 260 8.0 11.3 0.00 0.00 0.00 76 1016.7
20260905151052 30 315 1.6 4.8 0.00 0.00 0.00 78 1016.7
20260905150547 30 263 0.0 1.6 0.00 0.00 0.00 75 1016.4
20260905150040 31 255 1.6 1.6 0.00 0.00 0.00 77 1016.4
20260905145538 31 254 0.0 0.0 0.00 0.00 0.00 75 1016.7
20260905145038 30 254 1.6 1.6 0.00 0.00 0.00 72 1016.4
20260905144533 30 255 3.2 3.2 0.00 0.00 0.00 76 1016.7
20260905144032 29 245 0.0 0.0 0.00 0.00 0.00 78 1016.7
20260905143532 29 242 1.6 1.6 0.00 0.00 0.00 79 1016.4
20260905143027 28 244 0.0 1.6 0.00 0.00 0.00 78 1016.7
20260905142525 28 242 1.6 1.6 0.00 0.00 0.00 80 1016.7
20260905142021 28 237 0.0 0.0 0.00 0.00 0.00 80 1016.7
20260905141515 28 233 3.2 3.2 0.00 0.00 0.00 83 1016.7
20260905141012 28 201 3.2 3.2 0.00 0.00 0.00 80 1016.7
20260905140507 28 201 0.0 0.0 0.00 0.00 0.00 81 1017.1
20260905140005 28 200 0.0 0.0 0.00 0.00 0.00 83 1017.1
20260905135501 27 200 0.0 0.0 0.00 0.00 0.00 84 1016.7
20260905134956 26 200 0.0 1.6 0.00 0.00 0.00 88 1016.7
20260905134456 27 200 3.2 3.2 0.00 0.00 0.00 85 1017.1
20260905133955 27 200 0.0 1.6 0.00 0.00 0.00 85 1017.1
20260905133451 26 201 0.0 0.0 0.00 0.00 0.00 87 1017.1
20260905132949 26 200 0.0 1.6 0.00 0.00 0.00 88 1017.1
20260905132445 27 201 0.0 0.0 0.00 0.00 0.00 85 1017.1
20260905131939 26 200 0.0 0.0 0.00 0.00 0.00 87 1017.1
20260905131436 25 201 0.0 0.0 0.00 0.00 0.00 90 1017.5
20260905130936 23 201 0.0 0.0 0.00 0.00 0.00 95 1017.5
20260905130430 23 201 0.0 0.0 0.00 0.00 0.00 98 1017.5
20260905125929 23 201 0.0 0.0 0.00 0.00 0.00 99 1017.5
20260905125424 23 201 0.0 0.0 0.00 0.00 0.00 99 1017.5
20260905124920 21 200 0.0 0.0 0.00 0.00 0.00 99 1017.5
20260905124417 21 201 0.0 0.0 0.00 0.00 0.00 99 1017.1
20260905123916 21 352 0.0 0.0 0.00 0.00 0.00 99 1017.5
20260905123413 21 352 0.0 0.0 0.00 0.00 0.00 99 1017.5
20260905122908 20 353 0.0 0.0 0.00 0.00 0.00 99 1017.5
20260905122407 21 352 0.0 0.0 0.00 0.00 0.00 99 1017.5
20260905121903 21 352 0.0 0.0 0.00 0.00 0.00 99 1017.1
20260905121359 20 352 0.0 0.0 0.00 0.00 0.00 99 1017.1
20260905120857 19 353 0.0 0.0 0.00 0.00 0.00 99 1017.1
20260905120352 18 353 0.0 0.0 0.00 0.00 0.00 99 1017.1
20260905115847 18 353 0.0 0.0 0.00 0.00 0.00 99 1016.7
20260905115347 18 353 0.0 0.0 0.00 0.00 0.00 99 1016.7
20260905114841 18 43 0.0 0.0 0.00 0.00 0.00 99 1017.1
20260905114340 18 43 0.0 0.0 0.00 0.00 0.00 99 1017.1
20260905113840 18 43 0.0 0.0 0.00 0.00 0.00 99 1017.1
20260905113335 18 43 0.0 0.0 0.00 0.00 0.00 99 1016.7
20260905112831 18 43 0.0 0.0 0.00 0.00 0.00 99 1017.1
20260905112325 18 43 0.0 0.0 0.00 0.00 0.00 99 1016.7
20260905111821 18 43 0.0 0.0 0.00 0.00 0.00 99 1016.4
20260905111315 18 43 0.0 0.0 0.00 0.00 0.00 99 1016.4
20260905110814 17 43 0.0 0.0 0.00 0.00 0.00 99 1016.4
20260905110308 17 43 0.0 0.0 0.00 0.00 0.00 99 1016.4
20260905105804 17 43 0.0 0.0 0.00 0.00 0.00 99 1016.4
20260905105306 17 43 0.0 0.0 0.00 0.00 0.00 99 1016.4
20260905104757 17 43 0.0 0.0 0.00 0.00 0.00 99 1016.0
20260905104254 17 43 0.0 0.0 0.00 0.00 0.00 99 1016.0
20260905103753 17 43 0.0 0.0 0.00 0.00 0.00 99 1016.0
20260905103249 18 43 0.0 0.0 0.00 0.00 0.00 99 1016.0
20260905102744 17 43 0.0 0.0 0.00 0.00 0.00 99 1016.0
20260905102241 18 43 0.0 0.0 0.00 0.00 0.00 99 1015.7
20260905101740 18 43 0.0 0.0 0.00 0.00 0.00 99 1016.0
20260905101239 18 43 0.0 0.0 0.00 0.00 0.00 99 1015.7
20260905100734 18 43 0.0 0.0 0.00 0.00 0.00 99 1016.0
20260905100229 18 43 0.0 0.0 0.00 0.00 0.00 99 1016.0
20260905095724 18 43 0.0 0.0 0.00 0.00 0.00 99 1015.7
20260905095223 18 43 0.0 0.0 0.00 0.00 0.00 99 1016.0
20260905094718 18 43 0.0 0.0 0.00 0.00 0.00 99 1015.7
20260905094213 18 43 0.0 0.0 0.00 0.00 0.00 99 1016.0
20260905093713 18 43 0.0 0.0 0.00 0.00 0.00 99 1016.0
20260905093204 18 43 0.0 0.0 0.00 0.00 0.00 99 1016.4
20260905092658 18 43 0.0 0.0 0.00 0.00 0.00 99 1016.0
20260905092154 18 43 0.0 0.0 0.00 0.00 0.00 99 1016.0
20260905091654 18 43 0.0 0.0 0.00 0.00 0.00 99 1016.4
20260905091154 18 43 0.0 0.0 0.00 0.00 0.00 99 1016.0
20260905090653 18 43 0.0 0.0 0.00 0.00 0.00 99 1016.0
20260905090149 18 43 0.0 0.0 0.00 0.00 0.00 99 1016.4
20260905085648 18 43 0.0 0.0 0.00 0.00 0.00 99 1016.4
20260905085143 18 43 0.0 0.0 0.00 0.00 0.00 99 1016.0
20260905084642 18 43 0.0 0.0 0.00 0.00 0.00 99 1016.0
20260905084137 18 43 0.0 0.0 0.00 0.00 0.00 99 1016.4
20260905083632 18 43 0.0 0.0 0.00 0.00 0.00 99 1016.4
20260905083129 18 43 0.0 0.0 0.00 0.00 0.00 99 1016.4
20260905082624 18 43 0.0 0.0 0.00 0.00 0.00 99 1016.4
20260905082120 18 43 0.0 0.0 0.00 0.00 0.00 99 1016.7
20260905081620 18 43 0.0 0.0 0.00 0.00 0.00 99 1016.7
20260905081114 18 43 0.0 0.0 0.00 0.00 0.00 99 1016.4
20260905080609 18 43 0.0 0.0 0.00 0.00 0.00 99 1016.7
20260905080109 18 43 0.0 0.0 0.00 0.00 0.00 99 1016.7
20260905075608 19 43 0.0 0.0 0.00 0.00 0.00 99 1016.7
20260905075102 18 43 0.0 0.0 0.00 0.00 0.00 99 1016.7
20260905074601 19 43 0.0 0.0 0.00 0.00 0.00 99 1016.7
20260905074057 18 43 0.0 0.0 0.00 0.00 0.00 99 1017.1
20260905073553 18 43 0.0 0.0 0.00 0.00 0.00 99 1016.7
20260905073048 18 43 0.0 0.0 0.00 0.00 0.00 99 1016.7
20260905072547 19 43 0.0 0.0 0.00 0.00 0.00 99 1017.1
20260905072043 19 43 0.0 0.0 0.00 0.00 0.00 99 1016.7
20260905071540 19 43 0.0 0.0 0.00 0.00 0.00 99 1017.1
20260905071034 19 43 0.0 0.0 0.00 0.00 0.00 99 1017.1
20260905070530 19 43 0.0 0.0 0.00 0.00 0.00 99 1017.1
20260905070026 19 43 0.0 0.0 0.00 0.00 0.00 99 1017.1
20260905065523 19 43 0.0 0.0 0.00 0.00 0.00 99 1017.1
20260905065019 19 43 0.0 0.0 0.00 0.00 0.00 99 1017.1
20260905064519 19 43 0.0 0.0 0.00 0.00 0.00 99 1017.1
20260905064014 19 43 0.0 0.0 0.00 0.00 0.00 99 1017.1
20260905063513 20 43 0.0 0.0 0.00 0.00 0.00 99 1017.1
20260905063010 20 43 0.0 0.0 0.00 0.00 0.00 99 1017.5
20260905062509 19 43 0.0 0.0 0.00 0.00 0.00 99 1017.1
20260905062004 19 43 0.0 0.0 0.00 0.00 0.00 99 1017.1
20260905061500 19 43 0.0 0.0 0.00 0.00 0.00 99 1017.5
20260905060958 20 43 0.0 0.0 0.00 0.00 0.00 99 1017.5
20260905060454 20 43 0.0 0.0 0.00 0.00 0.00 99 1017.5
20260905055949 20 43 0.0 0.0 0.00 0.00 0.00 99 1017.5
20260905055448 20 43 0.0 0.0 0.00 0.00 0.00 99 1017.8
20260905054943 20 43 0.0 0.0 0.00 0.00 0.00 99 1017.5
20260905054438 20 43 0.0 0.0 0.00 0.00 0.00 99 1017.8
20260905053939 20 43 0.0 0.0 0.00 0.00 0.00 99 1017.8
20260905053434 20 43 0.0 0.0 0.00 0.00 0.00 99 1017.8
20260905052930 20 43 0.0 0.0 0.00 0.00 0.00 99 1017.8